TimeEDT,TemperatureF,Dew PointF,Humidity,Sea Level PressureIn,VisibilityMPH,Wind Direction,Wind SpeedMPH,Gust SpeedMPH,PrecipitationIn,Events,Conditions,WindDirDegrees,DateUTC
12:57 AM,72.0,66.9,84,30.17,10.0,South,4.6,-,N/A,,Clear,170,2013-05-19 04:57:00
1:57 AM,71.1,66.0,84,30.16,10.0,South,3.5,-,N/A,,Partly Cloudy,180,2013-05-19 05:57:00
2:57 AM,70.0,66.0,87,30.16,10.0,South,3.5,-,N/A,,Mostly Cloudy,170,2013-05-19 06:57:00
3:57 AM,69.1,64.9,87,30.15,10.0,Calm,Calm,-,N/A,,Clear,0,2013-05-19 07:57:00
4:57 AM,66.9,64.0,90,30.15,10.0,Calm,Calm,-,N/A,,Clear,0,2013-05-19 08:57:00
5:57 AM,68.0,64.9,90,30.17,10.0,Calm,Calm,-,N/A,,Clear,0,2013-05-19 09:57:00
6:57 AM,68.0,64.9,90,30.18,7.0,Calm,Calm,-,N/A,,Partly Cloudy,0,2013-05-19 10:57:00
7:57 AM,73.0,68.0,84,30.19,10.0,SSE,4.6,-,N/A,,Clear,160,2013-05-19 11:57:00
8:57 AM,73.9,66.9,79,30.20,10.0,SSE,4.6,-,N/A,,Clear,150,2013-05-19 12:57:00
9:57 AM,75.0,66.0,73,30.20,10.0,SSE,4.6,-,N/A,,Clear,160,2013-05-19 13:57:00
10:57 AM,75.0,66.9,76,30.21,10.0,SSE,3.5,-,N/A,,Clear,150,2013-05-19 14:57:00
11:57 AM,75.9,66.9,74,30.20,10.0,SSE,6.9,-,N/A,,Clear,150,2013-05-19 15:57:00
12:57 PM,78.1,66.0,66,30.19,10.0,SSE,8.1,-,N/A,,Clear,150,2013-05-19 16:57:00
1:57 PM,77.0,66.0,69,30.17,10.0,South,8.1,-,N/A,,Partly Cloudy,170,2013-05-19 17:57:00
2:57 PM,79.0,66.0,64,30.15,10.0,South,9.2,-,N/A,,Clear,180,2013-05-19 18:57:00
3:57 PM,79.0,66.0,64,30.14,10.0,SSE,9.2,-,N/A,,Clear,160,2013-05-19 19:57:00
4:57 PM,75.9,64.9,69,30.14,10.0,South,10.4,-,N/A,,Clear,170,2013-05-19 20:57:00
5:57 PM,75.0,64.9,71,30.15,10.0,South,6.9,-,N/A,,Partly Cloudy,170,2013-05-19 21:57:00
6:57 PM,75.0,64.9,71,30.14,10.0,South,8.1,-,N/A,,Clear,170,2013-05-19 22:57:00
7:57 PM,73.0,66.0,79,30.15,10.0,South,6.9,-,N/A,,Clear,180,2013-05-19 23:57:00
8:57 PM,73.0,66.0,79,30.16,10.0,South,5.8,-,N/A,,Partly Cloudy,170,2013-05-20 00:57:00
9:57 PM,72.0,64.9,78,30.17,10.0,SSE,10.4,-,N/A,,Clear,160,2013-05-20 01:57:00
10:57 PM,72.0,66.0,81,30.18,10.0,South,10.4,-,N/A,,Clear,170,2013-05-20 02:57:00
11:57 PM,70.0,64.9,84,30.18,10.0,SSE,15.0,20.7,N/A,,Partly Cloudy,160,2013-05-20 03:57:00